Location: Munkebjergskolens Observatorium
(55.3864°N, 10.3987°E)
Time: 09:28:37
(UTC+02:00)

JY1SAT - Pass Details

Date: 01 April 2023
Orbit: 555 x 574 km, 97.6° (Epoch: 03 June)

Event Time Altitude Azimuth Distance (km) Brightness Sun altitude
Exits shadow 23:33:23 19° 252° (WSW) 1,389 ? -25.8°
Maximum altitude 23:34:15 20° 270° (W) 1,340 ? -25.9°
Drops below altitude 10° 23:37:16 10° 318° (NW) 1,873 ? -26.1°
Sets 23:39:55 0° 336° (NNW) 2,781 ? -26.3°
